Weather History for Syracuse, NY

Change the Weather History Date:

Thursday, December 13, 2012

  Actual Average Record
Temperature  
Mean Temperature 39 °F 30 °F  
Max Temperature 46 °F 37 °F 61 °F (1923)
Min Temperature 32 °F 23 °F -5 °F (1982)
Degree Days  
Heating Degree Days 26 35  
Month to date heating degree days 315 423  
Since 1 July heating degree days 1520 1772  
Cooling Degree Days 0 0  
Month to date cooling degree days 0 0  
Year to date cooling degree days 953 569  
Moisture  
Dew Point 26 °F    
Average Humidity 60    
Maximum Humidity 75    
Minimum Humidity 45    
Precipitation  
Precipitation 0.00 in 0.10 in 1.48 in (1996)
Month to date precipitation 2.24 1.46  
Year to date precipitation 29.78 36.71  
Snow  
Snow 0.00 in 1.10 in 5.90 in (1951)
Month to date snowfall 0.2 12.8  
Since 1 July snowfall 3.0 22.7  
Snow Depth 0.00 in    
Sea Level Pressure  
Sea Level Pressure 30.37 in    
Wind  
Wind Speed 3 mph (SSW)    
Max Wind Speed 10 mph    
Max Gust Speed 13 mph    
Visibility 10 miles    
Events      
T = Trace of Precipitation, MM = Missing Value Source: NWS Daily Summary

Daily Weather History Graph

Daily Weather History Graph

Search for Another Location

Airport:

Trip Planner

Search our weather history database for the weather conditions in past years. The results will help you decide how hot, cold, wet, or windy it might be!

Date:

Astronomy

Dec. 13, 2012 Rise Set
Actual Time 7:28 AM EST 4:29 PM EST
Civil Twilight 6:55 AM EST 5:02 PM EST
Nautical Twilight 6:19 AM EST 5:37 PM EST
Astronomical Twilight 5:45 AM EST 6:12 PM EST
Moon 7:33 AM EST (12/13) 5:10 PM EST (12/13)
Length of Visible Light 10h 06m
Length of Day
9h 01m
Waxing Crescent, 0% of the Moon is Illuminated
Dec 13
Waxing Crescent
Dec 20
First Quarter
Dec 28
Full
Jan 4
Last Quarter
Jan 11
New

Hourly Weather History & Observations

Time (EST) Temp. Windchill Dew Point Humidity Pressure Visibility Wind Dir Wind Speed Gust Speed Precip Events Conditions
12:54 AM 36.0 °F 33.3 °F 28.0 °F 73% 30.42 in 10.0 mi West 3.5 mph - N/A   Overcast
1:54 AM 37.0 °F 34.5 °F 28.0 °F 70% 30.41 in 10.0 mi West 3.5 mph - N/A   Overcast
2:54 AM 36.0 °F 33.3 °F 28.9 °F 76% 30.42 in 10.0 mi West 3.5 mph - N/A   Overcast
3:54 AM 36.0 °F - 28.9 °F 76% 30.41 in 10.0 mi Calm Calm - N/A   Overcast
4:54 AM 36.0 °F 33.3 °F 28.0 °F 73% 30.42 in 10.0 mi WSW 3.5 mph - N/A   Overcast
5:54 AM 36.0 °F - 28.0 °F 73% 30.43 in 10.0 mi Calm Calm - N/A   Overcast
6:54 AM 34.0 °F 31.0 °F 27.0 °F 75% 30.44 in 10.0 mi SW 3.5 mph - N/A   Overcast
7:54 AM 34.0 °F - 26.1 °F 73% 30.44 in 10.0 mi Calm Calm - N/A   Scattered Clouds
8:54 AM 36.0 °F - 28.9 °F 76% 30.44 in 10.0 mi Calm Calm - N/A   Scattered Clouds
9:54 AM 39.0 °F 35.7 °F 28.0 °F 65% 30.44 in 10.0 mi SSW 4.6 mph - N/A   Scattered Clouds
10:54 AM 42.1 °F - 27.0 °F 55% 30.42 in 10.0 mi Calm Calm - N/A   Scattered Clouds
11:54 AM 44.1 °F 39.5 °F 28.0 °F 53% 30.39 in 10.0 mi SW 8.1 mph - N/A   Scattered Clouds
12:54 PM 44.1 °F 41.5 °F 26.1 °F 49% 30.37 in 10.0 mi SSW 4.6 mph - N/A   Scattered Clouds
1:54 PM 45.0 °F - 24.1 °F 44% 30.35 in 10.0 mi Calm Calm - N/A   Scattered Clouds
2:54 PM 44.1 °F - 24.1 °F 45% 30.34 in 10.0 mi Calm Calm - N/A   Scattered Clouds
3:54 PM 42.1 °F 38.4 °F 24.1 °F 49% 30.34 in 10.0 mi West 5.8 mph - N/A   Mostly Cloudy
4:54 PM 39.9 °F - 24.1 °F 53% 30.32 in 10.0 mi Calm Calm - N/A   Scattered Clouds
6:54 PM 37.0 °F 33.3 °F 25.0 °F 62% 30.31 in 10.0 mi SSE 4.6 mph - N/A   Partly Cloudy
7:54 PM 35.1 °F - 25.0 °F 67% 30.30 in 10.0 mi Calm Calm - N/A   Partly Cloudy
8:54 PM 34.0 °F 29.8 °F 24.1 °F 67% 30.28 in 10.0 mi SE 4.6 mph - N/A   Clear
9:54 PM 33.1 °F 26.9 °F 23.0 °F 66% 30.25 in 10.0 mi SSE 6.9 mph - N/A   Partly Cloudy
10:54 PM 34.0 °F 28.8 °F 23.0 °F 64% 30.25 in 10.0 mi South 5.8 mph - N/A   Scattered Clouds
11:54 PM 35.1 °F 28.6 °F 23.0 °F 61% 30.23 in 10.0 mi South 8.1 mph - N/A   Scattered Clouds